TimeCDT,TemperatureF,Dew PointF,Humidity,Sea Level PressureIn,VisibilityMPH,Wind Direction,Wind SpeedMPH,Gust SpeedMPH,PrecipitationIn,Events,Conditions,WindDirDegrees,DateUTC
12:53 AM,87.1,72.0,61,29.78,10.0,South,13.8,-,N/A,,Overcast,170,2013-08-07 05:53:00
1:53 AM,87.1,71.1,59,29.77,10.0,South,11.5,-,N/A,,Overcast,170,2013-08-07 06:53:00
2:13 AM,87.1,71.1,59,29.84,10.0,WSW,5.8,-,N/A,Thunderstorm,Thunderstorm,240,2013-08-07 07:13:00
2:36 AM,87.1,70.0,57,29.84,10.0,West,6.9,-,0.00,Rain,Light Rain,260,2013-08-07 07:36:00
2:53 AM,84.9,72.0,65,29.80,7.0,Calm,Calm,-,0.02,Rain,Light Rain,0,2013-08-07 07:53:00
3:53 AM,80.1,73.9,81,29.79,10.0,ESE,5.8,-,0.00,,Overcast,110,2013-08-07 08:53:00
4:53 AM,78.1,73.0,84,29.79,10.0,ESE,6.9,-,N/A,,Overcast,120,2013-08-07 09:53:00
5:53 AM,80.1,71.1,74,29.78,10.0,SSE,9.2,-,N/A,,Overcast,150,2013-08-07 10:53:00
6:53 AM,78.1,72.0,81,29.81,10.0,Calm,Calm,-,N/A,Thunderstorm,Thunderstorm,0,2013-08-07 11:53:00
7:53 AM,80.1,73.0,79,29.83,10.0,ESE,3.5,-,N/A,Thunderstorm,Thunderstorm,110,2013-08-07 12:53:00
8:19 AM,80.1,73.0,79,29.85,10.0,ESE,8.1,-,N/A,,Mostly Cloudy,110,2013-08-07 13:19:00
8:53 AM,82.0,73.0,74,29.83,10.0,ESE,8.1,-,N/A,,Mostly Cloudy,110,2013-08-07 13:53:00
9:53 AM,86.0,73.9,67,29.85,10.0,East,8.1,-,N/A,,Mostly Cloudy,100,2013-08-07 14:53:00
10:53 AM,87.1,73.9,65,29.85,10.0,ENE,11.5,-,N/A,,Mostly Cloudy,70,2013-08-07 15:53:00
11:53 AM,90.0,75.9,63,29.85,10.0,East,8.1,16.1,N/A,,Mostly Cloudy,80,2013-08-07 16:53:00
12:53 PM,90.0,75.9,63,29.85,10.0,ESE,11.5,-,N/A,,Mostly Cloudy,120,2013-08-07 17:53:00
1:53 PM,89.1,75.0,63,29.83,10.0,East,9.2,-,N/A,,Mostly Cloudy,100,2013-08-07 18:53:00
2:53 PM,90.0,75.9,63,29.81,10.0,ESE,15.0,-,N/A,,Mostly Cloudy,110,2013-08-07 19:53:00
3:53 PM,91.0,77.0,63,29.81,10.0,ESE,9.2,-,N/A,,Mostly Cloudy,110,2013-08-07 20:53:00
4:53 PM,91.0,77.0,63,29.81,10.0,East,8.1,-,N/A,,Mostly Cloudy,100,2013-08-07 21:53:00
5:53 PM,90.0,79.0,70,29.81,10.0,NE,12.7,-,N/A,,Mostly Cloudy,40,2013-08-07 22:53:00
6:53 PM,87.1,77.0,72,29.80,10.0,NE,12.7,-,N/A,,Scattered Clouds,50,2013-08-07 23:53:00
7:53 PM,84.0,75.0,74,29.81,10.0,NE,10.4,-,N/A,,Scattered Clouds,40,2013-08-08 00:53:00
8:53 PM,82.9,75.0,77,29.82,10.0,NE,6.9,-,N/A,,Scattered Clouds,50,2013-08-08 01:53:00
9:53 PM,82.0,75.0,79,29.84,10.0,ENE,8.1,-,N/A,,Scattered Clouds,70,2013-08-08 02:53:00
10:53 PM,81.0,73.0,77,29.85,10.0,ENE,9.2,-,N/A,,Scattered Clouds,60,2013-08-08 03:53:00
11:53 PM,81.0,72.0,74,29.84,10.0,NE,6.9,-,N/A,,Scattered Clouds,40,2013-08-08 04:53:00